Regional Weather Roundup
Issued by NWS Albany, NY

Home | Current Version | Previous Version | Text Only | Print | Product List | Glossary On
Versions: 1 2 3 4 5 6 7 8 9 10 11 12 13 14 15 16 17 18 19 20 21 22 23 24 25 26 27 28 29 30 31 32 33 34 35 36 37 38 39 40 41 42 43 44 45 46 47 48 49 50
000
ASUS41 KALY 270710
RWRALY

NEW YORK STATE HOURLY WEATHER ROUNDUP
NATIONAL WEATHER SERVICE ALBANY NY
200 AM EST THU NOV 27 2014

NOTE: "FAIR" INDICATES FEW OR NO CLOUDS BELOW 12,000 FEET WITH NO
SIGNIFICANT WEATHER AND/OR NO OBSTRUCTIONS TO VISIBILITY.

NYZ032-033-038>043-046>054-057>066-NYZ062>081-270800-
EAST


CITY           SKY/WX    TMP DP  RH WIND       PRES   REMARKS
ALBANY         LGT SNOW  31  28  89 N12       29.92R FOG     WCI  22
GLENS FALLS    LGT SNOW  30  27  88 N8        29.91S FOG     WCI  22
POUGHKEEPSIE   FLURRIES  33  29  85 N9        29.89R WCI  25
NEWBURGH       LGT SNOW  32  30  93 NE12      29.87S WCI  23
MONTGOMERY     CLOUDY    32  30  92 CALM      29.88R
WHITE PLAINS   FLURRIES  33  29  85 NW17      29.84R WCI  22
ISLIP          LGT RAIN  36  33  89 NW15      29.82R WCI  27
NEW YORK CITY  CLOUDY    37  30  75 N16       29.88R WCI  28
CENTRAL PARK   CLOUDY    36  30  79 VRB7      29.90R WCI  30
$$

NYZ005>009-017-018-044>046-055-056-270800-
CENTRAL


CITY           SKY/WX    TMP DP  RH WIND       PRES   REMARKS
FULTON         LGT SNOW  30  26  85 N5        30.00F FOG     WCI  25
SYRACUSE       LGT SNOW  29  26  89 NW10      30.00R FOG     WCI  20
ROME           LGT SNOW  28  27  96 W7        29.98R FOG     WCI  21
ELMIRA         LGT SNOW  31  26  82 NW3       29.98R
BINGHAMTON     LGT SNOW  36  25  64 NW8       29.89R WCI  30
MONTICELLO     MOCLDY    28  27  93 W8        29.85S WCI  20
$$

NYZ026>034-041>043-270800-
NORTH


CITY           SKY/WX    TMP DP  RH WIND       PRES   REMARKS
WATERTOWN      CLOUDY    30  20  66 N12       30.02R WCI  20
FORT DRUM      NOT AVBL
MASSENA        CLOUDY    30  21  69 N6        30.03R WCI  24
SARANAC LAKE     N/A     24  32 100 N5        29.89R FOG     WCI  18
PLATTSBURGH    NOT AVBL
$$

NYZ001>004-010>016-019>021-270800-
WEST


CITY           SKY/WX    TMP DP  RH WIND       PRES   REMARKS
NIAGARA FALLS  CLOUDY    29  22  75 NE7       30.05R WCI  22
BUFFALO        FLURRIES  29  23  78 NE6       30.04R WCI  23
DUNKIRK        CLOUDY    30  26  85 NE5       30.04R WCI  25
JAMESTOWN      CLOUDY    27  25  93 NE3       29.97R
WELLSVILLE     FLURRIES  26  23  88 N6        29.94S WCI  19
ROCHESTER      FLURRIES  29  26  89 NW5       30.04R WCI  24
PENN YAN       LGT SNOW  29  27  92 NW7       30.00R FOG     WCI  22
$$

             KEY
       WCI = WIND CHILL INDEX
       VSB = VISIBILITY
       HX  = HEAT INDEX
$$



USA.gov is the U.S. government's official web portal to all federal, state and local government web resources and services.